Location: Canet
(43.3261°N, 5.3723°E)
Time: 17:57:55
(UTC+00:00)

USA 267 - Pass Details

Date: 24 January 2021
Orbit: 1099 x 1108 km, 123.0° (Epoch: 06 March)

Event Time Altitude Azimuth Distance (km) Brightness Sun altitude
Exits shadow 18:41:57 31° 121° (ESE) 1,809 4.0 -22.1°
Maximum altitude 18:42:20 32° 127° (SE) 1,802 4.0 -22.2°
Drops below altitude 10° 18:48:01 10° 188° (S) 2,951 5.6 -23.2°
Sets 18:50:48 0° 198° (SSW) 3,906 6.4 -23.7°
